Weather reports worldwide

Advertisment
Lindenberg, Germany (10393): temperature & dewpoint: 18.08.2019 07:00:00 - 24.08.2019 07:00:00 (CEST)Lindenberg, Germany (10393): temperature 5cm & temperature -5cm: 18.08.2019 07:00:00 - 24.08.2019 07:00:00 (CEST)Lindenberg, Germany (10393): temperature -20cm & temperature -100cm: 18.08.2019 07:00:00 - 24.08.2019 07:00:00 (CEST)Lindenberg, Germany (10393): wind speed & gusts: 18.08.2019 07:00:00 - 24.08.2019 07:00:00 (CEST)Lindenberg, Germany (10393): wind direction: 18.08.2019 07:00:00 - 24.08.2019 07:00:00 (CEST)Lindenberg, Germany (10393): reduced air pressure: 18.08.2019 07:00:00 - 24.08.2019 07:00:00 (CEST)Lindenberg, Germany (10393): visibility: 18.08.2019 07:00:00 - 24.08.2019 07:00:00 (CEST)Lindenberg, Germany (10393): precipitation: 18.08.2019 07:00:00 - 24.08.2019 07:00:00 (CEST)
Date & Time tt [°C] td [°C] tt 5cm [°C] tt -5cm [°C] tt -20cm [°C] tt -100cm [°C] ff [km/h] ff [kn] fx [km/h] fx [kn] dd ppp [hPa] vv [km] rr [mm]
24.08.2019 07:00:00 17,0 11,9 15,3 16,9 21,5 20,4 10 6 18 10 ENE 1024,9 20 0,0
24.08.2019 06:00:00 17,2 12,0 14,4 17,0 21,9 20,4 10 5 18 10 E 1025,0 20 0,0
24.08.2019 05:00:00 16,7 12,1 13,9 17,5 22,4 20,3 11 6 18 10 ENE 1025,0 25 0,0
24.08.2019 04:00:00 17,8 12,2 13,9 18,1 22,8 20,3 8 4 16 9 E 1024,9 30 0,0
24.08.2019 03:00:00 18,6 12,3 15,3 18,7 23,3 20,3 9 5 18 10 E 1025,0 30 0,0
24.08.2019 02:00:00 18,8 12,3 15,8 19,4 23,9 20,3 10 6 16 9 E 1025,1 30 0,0
24.08.2019 01:00:00 19,9 12,0 17,9 20,2 24,5 20,3 10 6 19 10 E 1025,3 30 0,0
24.08.2019 00:00:00 20,0 12,0 17,7 20,9 25,1 20,3 11 6 18 10 E 1025,3 40 0,0
23.08.2019 23:00:00 20,7 11,7 17,5 22,0 25,8 20,3 10 5 16 8 E 1025,2 40 0,0
23.08.2019 22:00:00 21,7 11,8 19,0 23,3 26,5 20,3 10 5 14 8 E 1025,2 40 0,0
23.08.2019 21:00:00 22,4 11,5 19,0 25,0 27,1 20,3 8 4 12 7 E 1025,0 40 0,0
23.08.2019 20:00:00 23,5 11,2 20,3 28,0 27,5 20,3 8 4 14 7 E 1024,7 40 0,0
23.08.2019 19:00:00 26,3 10,1 27,2 31,4 27,6 20,3 6 4 13 7 ESE 1024,5 40 0,0
23.08.2019 18:00:00 26,9 10,0 29,6 34,0 27,3 20,3 6 3 15 8 ENE 1024,7 30 0,0
23.08.2019 17:00:00 27,2 10,0 30,7 35,7 26,7 20,3 8 5 19 10 SE 1025,0 30 0,0
23.08.2019 16:00:00 27,1 9,4 31,0 36,5 25,8 20,3 4 2 22 12 SW 1025,2 30 0,0
23.08.2019 15:00:00 26,1 8,8 32,0 36,3 24,7 20,3 9 5 21 11 ESE 1025,7 30 0,0
23.08.2019 14:00:00 26,0 10,2 31,1 35,2 23,5 20,3 11 6 21 11 ESE 1026,2 30 0,0
23.08.2019 13:00:00 24,9 10,6 29,4 33,2 22,3 20,3 9 5 23 12 SSE 1026,8 30 0,0
23.08.2019 12:00:00 24,1 10,5 28,5 30,7 21,2 20,3 9 5 24 13 SSE 1027,1 25 0,0
23.08.2019 11:00:00 23,3 12,0 27,0 27,5 20,3 20,3 8 5 18 10 SSE 1027,4 20 0,0
23.08.2019 10:00:00 20,8 12,7 23,9 23,7 19,7 20,3 6 3 14 8 SSE 1027,6 18 0,0
23.08.2019 09:00:00 19,0 12,7 21,6 19,9 19,6 20,3 6 3 12 7 SE 1027,5 15 0,0
23.08.2019 08:00:00 16,3 12,5 17,9 16,2 19,8 20,3 8 4 12 6 ESE 1027,6 15 0,0
23.08.2019 07:00:00 15,3 11,9 13,7 15,4 20,1 20,2 8 4 14 7 ESE 1027,4 15 0,0
23.08.2019 06:00:00 15,4 11,9 12,9 15,4 20,5 20,2 9 5 15 8 E 1027,2 20 0,0
23.08.2019 05:00:00 15,9 11,9 13,2 15,9 21,0 20,2 9 5 14 8 ESE 1026,8 25 0,0
23.08.2019 04:00:00 15,9 11,8 12,9 16,4 21,4 20,2 8 4 12 7 ESE 1026,8 30 0,0
23.08.2019 03:00:00 16,2 11,8 13,4 17,0 21,9 20,2 8 4 13 7 SE 1027,0 35 0,0
23.08.2019 02:00:00 16,5 11,6 13,4 17,7 22,5 20,2 7 4 14 8 SE 1027,1 40 0,0
23.08.2019 01:00:00 17,4 11,6 15,1 18,4 23,0 20,2 8 5 16 9 ESE 1027,2 40 0,0
23.08.2019 00:00:00 17,7 11,5 15,3 19,3 23,6 20,2 8 4 16 9 SE 1027,0 45 0,0
22.08.2019 23:00:00 19,2 11,5 16,6 20,3 24,3 20,2 11 6 17 9 ESE 1026,9 50 0,0
22.08.2019 22:00:00 19,8 10,9 16,7 21,5 24,9 20,2 9 5 14 8 ESE 1026,8 50 0,0
22.08.2019 21:00:00 19,7 10,7 16,3 23,2 25,5 20,2 8 4 15 8 ESE 1026,3 50 0,0
22.08.2019 20:00:00 22,3 9,4 20,4 26,1 25,9 20,3 7 4 18 10 ESE 1025,9 60 0,0
22.08.2019 19:00:00 24,1 8,3 25,0 29,2 25,9 20,3 9 5 19 11 ESE 1025,6 60 0,0
22.08.2019 18:00:00 24,8 8,1 27,2 31,5 25,7 20,3 11 6 23 12 E 1025,7 60 0,0
22.08.2019 17:00:00 25,5 8,3 29,4 33,4 25,0 20,3 13 7 25 13 ESE 1025,8 60 0,0
22.08.2019 16:00:00 24,7 8,4 28,9 33,3 24,2 20,3 10 5 22 12 E 1026,2 60 0,0
22.08.2019 15:00:00 24,5 8,2 28,1 34,4 23,0 20,3 9 5 20 11 SSE 1026,7 50 0,0
22.08.2019 14:00:00 23,9 7,4 30,9 33,5 21,8 20,3 13 7 22 12 SE 1027,3 50 0,0
22.08.2019 13:00:00 22,9 8,0 24,3 29,4 20,8 20,3 11 6 21 12 SSE 1027,9 50 0,0
22.08.2019 12:00:00 23,3 9,7 28,3 29,1 19,7 20,3 8 5 21 11 ESE 1028,2 50 0,0
22.08.2019 11:00:00 21,4 10,8 25,1 25,3 18,9 20,3 7 4 21 11 S 1028,6 50 0,0
22.08.2019 10:00:00 19,6 11,1 22,2 21,3 18,4 20,3 7 4 13 7 SSE 1028,8 40 0,0
22.08.2019 09:00:00 17,1 10,0 19,5 17,5 18,2 20,3 6 3 10 5 SE 1028,8 40 0,0
22.08.2019 08:00:00 16,4 9,7 17,8 15,3 18,4 20,3 7 4 12 7 E 1028,7 40 0,0
22.08.2019 07:00:00 12,9 9,0 11,2 13,7 18,7 20,3 8 4 13 7 E 1028,7 30 0,0
22.08.2019 06:00:00 15,5 8,6 12,8 13,8 19,0 20,3 10 5 14 8 E 1028,4 35 0,0
22.08.2019 05:00:00 15,5 8,3 12,4 14,3 19,3 20,3 9 5 15 8 E 1028,3 40 0,0
22.08.2019 04:00:00 16,6 7,6 13,4 14,4 19,7 20,3 8 5 16 9 E 1028,3 40 0,0
22.08.2019 03:00:00 16,9 7,0 14,3 14,6 20,2 20,3 10 6 18 10 E 1028,4 40 0,0
22.08.2019 02:00:00 17,0 6,6 13,5 15,0 20,7 20,3 9 5 15 8 E 1028,6 40 0,0
22.08.2019 01:00:00 16,4 6,9 12,3 15,5 21,2 20,3 8 4 14 8 NE 1028,8 40 0,0
22.08.2019 00:00:00 15,0 7,6 11,7 16,1 21,9 20,3 7 4 12 7 NE 1028,8 40 0,0
21.08.2019 23:00:00 15,4 8,3 11,5 17,0 22,5 20,3 6 3 11 6 NNE 1028,7 40 0,0
21.08.2019 22:00:00 16,1 8,2 12,7 18,3 23,2 20,3 5 3 10 6 NNE 1028,4 40 0,0
21.08.2019 21:00:00 17,0 8,3 14,0 20,0 23,9 20,3 5 3 8 5 N 1028,2 45 0,0
21.08.2019 20:00:00 18,6 8,9 16,3 23,0 24,3 20,3 3 2 12 7 NNW 1027,7 45 0,0
21.08.2019 19:00:00 22,0 7,5 22,9 25,9 24,3 20,3 6 4 18 10 WNW 1027,3 45 0,0
21.08.2019 18:00:00 22,7 7,0 24,6 28,2 24,1 20,3 10 5 20 11 WNW 1027,3 40 0,0
21.08.2019 17:00:00 22,9 7,8 26,8 29,6 23,6 20,3 12 7 25 13 WNW 1027,2 40 0,0
21.08.2019 16:00:00 22,3 8,6 25,9 29,4 23,1 20,3 13 7 28 15 W 1027,0 35 0,0
21.08.2019 15:00:00 22,3 9,3 26,0 29,1 22,4 20,3 14 7 27 14 W 1027,2 35 0,0
21.08.2019 14:00:00 21,9 9,0 26,6 28,8 21,6 20,3 9 5 26 14 W 1027,2 30 0,0
21.08.2019 13:00:00 21,2 9,3 25,5 26,8 20,8 20,3 12 6 23 13 W 1027,4 30 0,0
21.08.2019 12:00:00 20,2 11,5 23,8 24,7 20,1 20,3 12 7 26 14 W 1027,4 30 0,0
21.08.2019 11:00:00 18,8 11,9 21,6 22,7 19,6 20,3 17 9 26 14 WNW 1027,4 25 0,0
21.08.2019 10:00:00 17,4 13,0 19,8 20,8 19,3 20,3 13 7 23 12 WNW 1027,3 25 0,0
21.08.2019 09:00:00 15,8 12,8 17,9 18,6 19,2 20,3 13 7 20 11 W 1027,0 20 0,0
21.08.2019 08:00:00 14,3 13,3 14,9 15,9 19,4 20,3 6 3 18 10 SW 1026,4 15 0,0
21.08.2019 07:00:00 13,5 12,7 13,1 15,4 19,7 20,3 9 5 13 7 SW 1026,1 20 0,0
21.08.2019 06:00:00 13,9 13,5 13,8 16,1 20,0 20,3 9 5 13 7 SW 1025,8 12 0,0
21.08.2019 05:00:00 14,1 13,7 14,0 16,7 20,3 20,3 3 2 8 5 SSE 1025,2 30 0,1
21.08.2019 04:00:00 14,7 14,1 14,7 17,1 20,6 20,3 3 2 17 9 N 1025,0 15 0,7
21.08.2019 03:00:00 15,4 14,9 15,3 17,5 20,9 20,3 8 4 14 8 WNW 1024,7 15 1,1
21.08.2019 02:00:00 15,5 15,0 15,4 17,7 21,2 20,3 7 4 9 5 NW 1024,4 10 1,1
21.08.2019 01:00:00 16,0 14,6 15,5 18,1 21,6 20,3 8 4 11 6 W 1024,2 12 0,4
21.08.2019 00:00:00 16,6 14,3 15,5 18,5 22,0 20,4 8 5 12 6 SSE 1023,1 20 0,2
20.08.2019 23:00:00 16,5 13,8 15,7 19,1 22,5 20,4 8 4 11 6 NE 1023,3 20 0,3
20.08.2019 22:00:00 17,1 13,7 16,1 19,9 22,9 20,4 7 4 14 8 NE 1022,9 15 0,2
20.08.2019 21:00:00 18,1 14,0 17,0 21,1 23,3 20,4 5 3 11 6 NNE 1022,3 40 0,1
20.08.2019 20:00:00 20,8 12,4 19,1 22,7 23,6 20,4 8 4 11 6 WNW 1021,4 50 0,0
20.08.2019 19:00:00 21,7 11,5 20,5 24,1 23,8 20,4 4 2 8 4 NNE 1020,9 50 0,0
20.08.2019 18:00:00 23,4 11,4 23,3 25,7 23,9 20,4 4 2 7 4 NW 1020,9 50 0,0
20.08.2019 17:00:00 23,9 9,2 24,5 27,1 23,7 20,4 3 1 10 6 NW 1020,7 50 0,0
20.08.2019 16:00:00 24,8 7,6 26,2 28,3 23,4 20,4 6 3 13 7 SW 1020,8 50 0,0
20.08.2019 15:00:00 24,7 7,7 26,6 29,2 22,9 20,4 5 3 16 9 SW 1020,8 50 0,0
20.08.2019 14:00:00 24,5 7,5 27,1 30,1 22,0 20,4 8 4 16 9 S 1021,2 50 0,0
20.08.2019 13:00:00 24,6 9,3 28,0 30,6 21,0 20,4 9 5 21 11 SSW 1021,2 45 0,0
20.08.2019 12:00:00 23,7 8,8 27,0 28,1 20,1 20,4 9 5 22 12 ESE 1021,4 40 0,0
20.08.2019 11:00:00 22,7 7,6 26,9 26,3 19,2 20,4 8 5 15 8 ESE 1021,6 40 0,0
20.08.2019 10:00:00 21,9 10,0 25,1 22,5 18,6 20,4 7 4 13 7 ESE 1021,5 45 0,0
20.08.2019 09:00:00 19,3 10,9 22,1 18,5 18,3 20,4 3 2 6 4 E 1021,2 40 0,0
20.08.2019 08:00:00 16,0 10,8 16,4 15,6 18,4 20,4 5 3 8 4 N 1021,5 45 0,0
20.08.2019 07:00:00 12,9 9,7 11,9 14,2 18,7 20,4 3 2 6 3 NW 1021,1 45 0,0
20.08.2019 06:00:00 14,9 9,2 11,6 13,8 19,0 20,4 5 3 6 4 SSW 1020,6 40 0,0
20.08.2019 05:00:00 14,2 9,5 10,1 13,9 19,4 20,4 4 2 10 5 SW 1020,4 50 0,0
20.08.2019 04:00:00 15,1 9,0 11,7 14,5 19,7 20,4 6 3 10 5 S 1020,2 50 0,0
20.08.2019 03:00:00 15,4 9,0 11,7 15,0 20,1 20,4 5 3 10 5 SSW 1020,2 50 0,0
20.08.2019 02:00:00 16,8 8,2 13,2 15,6 20,6 20,4 7 4 12 7 SE 1019,8 50 0,0
20.08.2019 01:00:00 16,6 8,5 14,1 16,0 21,0 20,5 9 5 12 6 ESE 1019,8 50 0,0
20.08.2019 00:00:00 15,5 9,2 13,1 16,7 21,5 20,5 7 4 8 4 E 1019,5 50 0,0
19.08.2019 23:00:00 16,9 8,1 13,5 17,0 22,1 20,5 6 3 9 5 NNW 1019,2 50 0,0
19.08.2019 22:00:00 16,7 8,5 13,1 18,0 22,7 20,5 6 4 9 5 N 1018,8 50 0,0
19.08.2019 21:00:00 17,3 9,7 14,2 19,7 23,3 20,5 5 3 10 5 N 1018,3 50 0,0
19.08.2019 20:00:00 20,0 8,6 17,4 22,5 23,6 20,5 5 3 24 13 NW 1017,5 50 0,0
19.08.2019 19:00:00 23,2 6,9 23,7 25,1 23,6 20,5 15 8 30 16 WNW 1016,8 40 0,0
19.08.2019 18:00:00 23,9 6,5 25,6 26,9 23,3 20,5 17 9 32 17 WNW 1016,6 40 0,0
19.08.2019 17:00:00 24,3 7,2 26,6 27,6 22,9 20,5 18 10 32 18 WNW 1016,3 45 0,0
19.08.2019 16:00:00 23,7 9,8 26,5 26,5 22,6 20,5 15 8 31 17 WNW 1016,0 45 0,0
19.08.2019 15:00:00 22,4 12,6 23,8 25,8 22,1 20,5 9 5 34 18 WNW 1015,9 45 0,0
19.08.2019 14:00:00 23,0 13,4 26,8 26,7 21,4 20,5 10 5 28 15 SW 1015,7 40 0,0
19.08.2019 13:00:00 21,2 14,1 24,8 25,6 20,8 20,5 9 5 18 10 WSW 1015,7 35 0,0
19.08.2019 12:00:00 19,4 14,5 21,4 23,9 20,3 20,5 11 6 21 12 W 1015,5 30 0,0
19.08.2019 11:00:00 18,0 15,4 19,3 21,1 20,1 20,5 9 5 15 8 SW 1015,6 25 0,0
19.08.2019 10:00:00 17,1 15,0 18,3 19,8 20,0 20,5 6 4 11 6 SSW 1015,0 20 0,0
19.08.2019 09:00:00 16,6 15,4 17,0 18,6 20,1 20,5 7 4 11 6 W 1014,5 20 0,0
19.08.2019 08:00:00 16,3 15,3 16,5 17,8 20,2 20,5 8 4 11 6 WNW 1014,1 20 0,0
19.08.2019 07:00:00 16,1 15,5 15,8 17,4 20,4 20,5 8 4 16 9 WNW 1013,6 15 0,0
19.08.2019 06:00:00 16,5 16,0 16,3 17,5 20,7 20,5 8 4 20 11 WNW 1012,9 15 0,0
19.08.2019 05:00:00 17,0 16,5 16,7 17,7 21,0 20,5 12 7 21 11 W 1012,7 20 0,0
19.08.2019 04:00:00 17,2 16,4 16,7 17,9 21,3 20,5 11 6 19 10 W 1012,1 30 0,0
19.08.2019 03:00:00 17,7 16,9 17,3 18,4 21,6 20,5 13 7 20 11 W 1011,4 35 0,0
19.08.2019 02:00:00 18,0 16,8 17,3 18,5 22,0 20,5 13 7 20 11 WSW 1010,8 45 0,0
19.08.2019 01:00:00 18,5 17,2 18,0 19,3 22,4 20,5 14 8 22 12 WSW 1010,4 45 0,0
19.08.2019 00:00:00 18,7 17,3 18,2 19,9 22,8 20,5 14 7 22 12 WSW 1009,9 45 0,1
18.08.2019 23:00:00 19,4 17,5 18,9 20,6 23,2 20,5 12 6 22 12 WSW 1009,1 50 0,0
18.08.2019 22:00:00 19,9 18,3 19,3 21,5 23,6 20,5 12 7 17 9 W 1008,0 50 0,1
18.08.2019 21:00:00 19,4 18,9 19,3 22,2 24,1 20,5 8 4 14 7 W 1007,5 40 0,0
18.08.2019 20:00:00 20,4 18,5 19,9 23,5 24,4 20,5 13 7 57 31 W 1007,1 50 4,0
18.08.2019 19:00:00 27,1 15,7 26,7 28,2 24,2 20,5 10 5 24 13 S 1004,3 50 0,0
18.08.2019 18:00:00 26,8 16,2 27,6 30,3 23,6 20,5 15 8 29 16 WSW 1005,9 50 0,0
18.08.2019 17:00:00 26,6 16,1 29,6 30,7 22,9 20,5 20 11 38 21 SW 1006,3 50 0,0
18.08.2019 16:00:00 24,6 16,0 27,8 29,3 22,2 20,5 25 13 42 23 SW 1007,0 50 0,0
18.08.2019 15:00:00 22,8 17,2 26,1 27,9 21,5 20,5 21 11 35 19 SW 1007,4 50 0,0
18.08.2019 14:00:00 20,7 17,5 22,0 25,0 21,2 20,5 19 11 32 17 SW 1007,4 40 0,0
18.08.2019 13:00:00 18,9 17,7 19,8 22,0 21,1 20,5 10 5 17 9 SW 1007,4 25 0,1
18.08.2019 12:00:00 18,2 17,3 18,4 21,4 21,1 20,5 10 6 20 11 SSW 1007,5 15 0,5
18.08.2019 11:00:00 17,7 17,3 18,1 21,0 21,0 20,5 7 4 18 10 S 1007,7 2,0 0,4
18.08.2019 10:00:00 18,1 16,2 18,0 20,5 21,0 20,5 11 6 26 14 SSW 1008,2 5 0,1
18.08.2019 09:00:00 19,2 15,3 19,9 20,3 21,0 20,5 7 4 16 9 SSW 1008,3 30 0,0
18.08.2019 08:00:00 18,5 15,1 17,7 19,8 21,1 20,5 7 4 14 7 SSW 1008,6 40 0,1
18.08.2019 07:00:00 18,8 13,8 18,6 19,4 21,3 20,5 6 3 13 7 SSW 1008,6 50 0,0

tt = temperature
td = dewpoint
tt 5cm = temperature 5cm
tt -5cm = temperature -5cm
tt -20cm = temperature -20cm
tt -100cm = temperature -100cm
ff = wind speed
fx = gusts
dd = wind direction
ppp = reduced air pressure
vv = visibility
rr = precipitation

Next stations